[[{"header":{"parameterUnit":"m.s-1","parameterCategory":1,"la1":30.2991,"la2":30.254,"lo1":-89.0895,"lo2":-89.0444,"dy":0.0017,"dx":0.0017,"nx":28,"ny":28,"refTime":"2025-08-22T03:00:00:Z","depth":0,"parameterNumber":2,"parameterNumberName":"U-component_of_WINDS"},"data":[0,0,0,0,0,0,0,0,0,0,0,0,0,0,0,0,0,0,0,0,0,0,0,0,0,0,0,0,0,0,0,0,0,0,0,0,0,0,0,0,0,0,0,0,0,0,0,0,0,0,0,0,0,0,0,0,0,0,-1.001,-1.0011,0,-1.0067,-1.0067,-1.0068,-1.0079,-1.0079,-1.0078,-1.0078,-1.0138,-1.014,-1.0142,0,0,0,0,0,0,0,0,0,0,0,0,0,-0.9913,-0.9914,-1.001,-1.0011,-1.0011,-1.0067,-1.0067,-1.0068,-1.0079,-1.0079,-1.0078,-1.0078,-1.0137,-1.014,-1.0142,0,0,0,0,0,0,0,0,0,0,0,0,0,-0.9961,-0.9915,-1.001,-1.0023,-1.0025,-1.0067,-1.0068,-1.0068,-1.008,-1.0079,-1.0078,-1.0078,-1.0137,-1.0139,-1.0142,-1.0175,0,0,-1.0152,-1.0153,0,0,0,0,0,0,0,0,-0.9958,-0.9964,-1.0021,-1.0023,-1.0025,-1.0065,-1.0055,-1.0104,-1.008,-1.0059,-1.0078,-1.0077,-1.0114,-1.0119,-1.0131,-1.0177,-1.018,-1.0152,-1.0154,-1.0155,-1.0156,0,0,0,0,0,0,0,-0.9955,-0.9962,-1.0032,-1.0022,-1.0024,-1.0027,-1.0034,-1.0065,-1.009,-1.0061,-1.0062,-1.0068,-1.0115,-1.0128,-1.0133,-1.0181,-1.0152,-1.0155,-1.0156,-1.0158,-1.0257,-1.0258,0,0,0,0,0,0,-0.9949,-0.9959,-1.0031,-1.0034,-0.9989,-1.003,-1.0037,-1.0053,-1.009,-1.0094,-1.0069,-1.0068,-1.0124,-1.0129,-1.0135,-1.0176,-1.0155,-1.0158,-1.016,-1.0256,-1.0257,-1.0258,0,0,0,0,0,0,-0.9947,-0.9955,-1.0028,-0.9997,-1.0007,-1.0032,-1.005,-1.0054,-1.0068,-1.0096,-1.01,-1.0077,-1.0123,-1.0131,-1.0165,-1.0178,-1.0159,-1.0162,-1.0255,-1.0256,-1.0257,-1.0256,0,0,0,0,0,0,-0.9944,-0.9954,-0.9966,-0.9997,-1.0008,-1.0056,-1.0051,-1.0056,-1.0072,-1.0073,-1.0105,-1.011,-1.0123,-1.016,-1.0168,-1.0182,-1.0164,-1.0254,-1.0256,-1.0257,-1.0255,-1.0258,-1.0259,0,0,0,0,0,-0.994,-0.9964,-0.9967,-0.9975,-1.0024,-1.0057,-1.0064,-1.0079,-1.0073,-1.0086,-1.0104,-1.0109,-1.0175,-1.0163,-1.0172,-1.0187,-1.0253,-1.0255,-1.0257,-1.0255,-1.0257,-1.0259,0,0,0,0,0,0,-0.9934,-0.9968,-0.9972,-1.0006,-1.0029,-1.0059,-1.0075,-1.0081,-1.0106,-1.0105,-1.0123,-1.013,-1.0163,-1.0179,-1.0165,-1.0221,-1.0214,-1.0218,-1.0209,-1.0212,-1.0214,-1.021,-1.0167,0,0,0,0,0,-0.9937,-0.9961,-0.9989,-1.0017,-1.0028,-1.005,-1.0065,-1.0074,-1.0099,-1.0109,-1.0129,-1.0153,-1.0179,-1.0196,-1.0222,-1.0258,-1.0265,-1.0272,-1.0274,-1.0276,-1.0279,-1.0299,-1.0303,-1.0264,-1.0264,-1.0264,0,0,-0.9943,-0.9964,-0.9978,-1.0016,-1.0035,-1.006,-1.0058,-1.0084,-1.0103,-1.0113,-1.0146,-1.0162,-1.019,-1.0225,-1.0241,-1.0239,-1.0291,-1.0278,-1.0279,-1.0281,-1.0302,-1.0305,-1.0309,-1.0265,-1.0265,-1.0265,0,0,-0.9966,-0.9984,-1.001,-1.0028,-1.0056,-1.0071,-1.0077,-1.0106,-1.0117,-1.0151,-1.0159,-1.0182,-1.0227,-1.0246,-1.0262,-1.0293,-1.0299,-1.0301,-1.0312,-1.0331,-1.0334,-1.0337,-1.0349,-1.0353,-1.0304,-1.0304,-1.0304,0,-0.997,-1.0007,-1.0022,-1.0048,-1.0065,-1.0074,-1.01,-1.0118,-1.0153,-1.0165,-1.0161,-1.0218,-1.0238,-1.0278,-1.0285,-1.0297,-1.0306,-1.0298,-1.0333,-1.0336,-1.0339,-1.035,-1.0354,-1.0304,-1.0304,-1.0304,-1.0304,0,-1.0011,-1.0037,-1.0054,-1.0087,-1.0106,-1.0132,-1.0151,-1.0168,-1.0176,-1.0191,-1.0225,-1.0249,-1.028,-1.029,-1.0298,-1.0332,-1.0329,-1.0329,-1.0323,-1.0342,-1.0353,-1.0358,-1.0305,-1.0305,-1.0305,-1.0305,0,0,-1.0032,-1.0073,-1.0079,-1.0095,-1.0127,-1.0147,-1.0174,-1.0204,-1.0218,-1.0242,-1.0266,-1.0303,-1.0304,-1.0322,-1.0332,-1.0349,-1.0373,-1.0347,-1.0348,-1.0352,-1.0412,-1.0412,-1.0417,-1.0377,-1.0378,-1.0378,-1.041,0,-1.006,-1.0107,-1.0121,-1.0161,-1.0186,-1.0195,-1.0218,-1.0241,-1.0255,-1.0279,-1.0295,-1.0322,-1.032,-1.0331,-1.0348,-1.0367,-1.0386,-1.0364,-1.0399,-1.04,-1.0392,-1.0423,-1.0423,-1.0452,-1.0414,-1.0415,-1.0416,0,-1.0098,-1.0123,-1.0165,-1.0194,-1.0205,-1.0225,-1.0254,-1.0276,-1.0302,-1.0311,-1.0331,-1.034,-1.0369,-1.0361,-1.0402,-1.0387,-1.0402,-1.0413,-1.0415,-1.0419,-1.0409,-1.0428,-1.0461,-1.0466,-1.0422,-1.0422,-1.0421,0,-1.011,-1.0154,-1.0185,-1.0198,-1.0232,-1.0246,-1.0261,-1.0287,-1.0304,-1.0329,-1.034,-1.0369,-1.0385,-1.0407,-1.0424,-1.0416,-1.0463,-1.0456,-1.0472,-1.0472,-1.0482,-1.0481,-1.0518,-1.0491,-1.0491,-1.0491,-1.0491,0,-1.014,-1.0166,-1.0191,-1.021,-1.0239,-1.0255,-1.0284,-1.03,-1.0322,-1.0345,-1.0355,-1.0376,-1.0397,-1.0421,-1.0435,-1.0466,-1.0473,-1.0482,-1.0486,-1.0482,-1.0481,-1.0492,-1.0491,-1.0492,-1.0492,-1.0491,-1.0491,0,-1.0159,-1.0176,-1.0211,-1.024,-1.0248,-1.0269,-1.0295,-1.0314,-1.0329,-1.0358,-1.0365,-1.0389,-1.0418,-1.0437,-1.0475,-1.0484,-1.0519,-1.0521,-1.051,-1.0512,-1.0527,-1.0526,-1.0573,-1.0581,-1.0548,-1.0548,-1.0548,0,-1.0177,-1.0197,-1.0228,-1.0244,-1.0259,-1.0284,-1.0302,-1.0319,-1.0337,-1.0368,-1.0383,-1.0413,-1.0438,-1.0484,-1.0505,-1.0534,-1.0538,-1.0552,-1.0542,-1.0538,-1.0539,-1.0537,-1.054,-1.0554,-1.0555,-1.0555,-1.0555,0,-1.0207,-1.0215,-1.0239,-1.0267,-1.0287,-1.031,-1.0333,-1.0345,-1.0366,-1.0386,-1.0416,-1.0435,-1.0473,-1.0502,-1.0533,-1.0549,-1.0556,-1.0558,-1.0563,-1.056,-1.0553,-1.0557,-1.0515,-1.0557,-1.0557,-1.0557,-1.0556,-1.0556,-1.0227,-1.0245,-1.027,-1.0297,-1.0316,-1.0337,-1.0356,-1.0374,-1.0398,-1.043,-1.0439,-1.047,-1.0496,-1.0538,-1.0555,-1.058,-1.0578,-1.0586,-1.0588,-1.059,-1.059,-1.0548,-1.0586,-1.0586,-1.0586,-1.0586,-1.0585,0,-1.0258,-1.0274,-1.0299,-1.033,-1.0352,-1.0355,-1.0381,-1.0399,-1.0426,-1.0449,-1.0473,-1.0507,-1.0536,-1.056,-1.0589,-1.0605,-1.0609,-1.0613,-1.0612,-1.0616,-1.059,-1.0582,-1.0609,-1.0609,-1.0609,-1.0609,-1.0609,-1.0609,-1.0277,-1.0308,-1.0319,-1.036,-1.0376,-1.0406,-1.0421,-1.044,-1.0459,-1.0497,-1.0521,-1.0535,-1.0559,-1.0591,-1.0618,-1.0624,-1.0635,-1.0638,-1.0645,-1.062,-1.0617,-1.0615,-1.0608,-1.064,-1.064,-1.0668,-1.0669,-1.0669]},{"header":{"parameterUnit":"m.s-1","parameterCategory":1,"la1":30.2991,"la2":30.254,"lo1":-89.0895,"lo2":-89.0444,"dy":0.0017,"dx":0.0017,"nx":28,"ny":28,"refTime":"2025-08-22T03:00:00:Z","depth":0,"parameterNumber":3,"parameterNumberName":"V-component_of_WINDS"},"data":[0,0,0,0,0,0,0,0,0,0,0,0,0,0,0,0,0,0,0,0,0,0,0,0,0,0,0,0,0,0,0,0,0,0,0,0,0,0,0,0,0,0,0,0,0,0,0,0,0,0,0,0,0,0,0,0,0,0,-0.0437,-0.0437,0,-0.0401,-0.04,-0.04,-0.0402,-0.0402,-0.0403,-0.0403,-0.0366,-0.0365,-0.0364,0,0,0,0,0,0,0,0,0,0,0,0,0,-0.0509,-0.0508,-0.0437,-0.0437,-0.0436,-0.0401,-0.04,-0.04,-0.0401,-0.0402,-0.0403,-0.0403,-0.0367,-0.0365,-0.0363,0,0,0,0,0,0,0,0,0,0,0,0,0,-0.0476,-0.0507,-0.0437,-0.0433,-0.0432,-0.0401,-0.04,-0.04,-0.0401,-0.0402,-0.0403,-0.0404,-0.0367,-0.0365,-0.0363,-0.0334,0,0,-0.0357,-0.0356,0,0,0,0,0,0,0,0,-0.0478,-0.0473,-0.0434,-0.0433,-0.0432,-0.0407,-0.0412,-0.0378,-0.0401,-0.0413,-0.0403,-0.0404,-0.0379,-0.0376,-0.0368,-0.0333,-0.0331,-0.0356,-0.0355,-0.0354,-0.0353,0,0,0,0,0,0,0,-0.048,-0.0475,-0.0423,-0.0433,-0.0432,-0.0433,-0.0429,-0.0406,-0.0392,-0.0412,-0.0412,-0.0408,-0.0379,-0.037,-0.0367,-0.0331,-0.0356,-0.0354,-0.0353,-0.0352,-0.0271,-0.027,0,0,0,0,0,0,-0.0483,-0.0477,-0.0424,-0.0422,-0.0457,-0.0431,-0.0427,-0.0414,-0.0393,-0.039,-0.0407,-0.0408,-0.0373,-0.0369,-0.0365,-0.033,-0.0354,-0.0352,-0.0351,-0.0271,-0.027,-0.0269,0,0,0,0,0,0,-0.0485,-0.0478,-0.0426,-0.0449,-0.0443,-0.0429,-0.0415,-0.0413,-0.0404,-0.0389,-0.0386,-0.04,-0.0373,-0.0368,-0.0342,-0.0329,-0.0351,-0.0349,-0.0272,-0.0271,-0.027,-0.026,0,0,0,0,0,0,-0.0487,-0.0479,-0.0468,-0.0449,-0.0441,-0.0403,-0.0414,-0.0412,-0.04,-0.0401,-0.0382,-0.0379,-0.0374,-0.0345,-0.034,-0.0327,-0.0347,-0.0274,-0.0272,-0.027,-0.0261,-0.0259,-0.0256,0,0,0,0,0,-0.0489,-0.0467,-0.0467,-0.0461,-0.0427,-0.0402,-0.0397,-0.0391,-0.0399,-0.0388,-0.0378,-0.038,-0.0331,-0.0343,-0.0337,-0.0322,-0.0274,-0.0272,-0.027,-0.0263,-0.0259,-0.0256,0,0,0,0,0,0,-0.0484,-0.0464,-0.0464,-0.0435,-0.042,-0.0402,-0.0388,-0.0388,-0.0371,-0.0372,-0.0365,-0.0361,-0.0335,-0.0326,-0.0339,-0.0293,-0.0304,-0.0301,-0.03,-0.0297,-0.0294,-0.0297,-0.0346,0,0,0,0,0,-0.048,-0.0461,-0.0444,-0.042,-0.0412,-0.0401,-0.039,-0.0387,-0.0371,-0.0365,-0.0353,-0.0338,-0.032,-0.0308,-0.029,-0.026,-0.0256,-0.0248,-0.0245,-0.0243,-0.024,-0.0224,-0.022,-0.0263,-0.0263,-0.0263,0,0,-0.047,-0.0457,-0.0445,-0.0419,-0.0407,-0.0387,-0.0396,-0.0375,-0.0361,-0.0362,-0.0336,-0.0327,-0.031,-0.0282,-0.0269,-0.0274,-0.0227,-0.024,-0.0239,-0.0237,-0.0221,-0.0217,-0.0214,-0.0262,-0.0262,-0.0262,0,0,-0.0443,-0.0431,-0.0409,-0.0397,-0.0379,-0.0372,-0.0366,-0.0348,-0.0342,-0.0316,-0.0317,-0.03,-0.0268,-0.0256,-0.0245,-0.0214,-0.0215,-0.0208,-0.0194,-0.0178,-0.0175,-0.0172,-0.016,-0.0156,-0.0206,-0.0205,-0.0205,0,-0.0433,-0.0404,-0.0398,-0.0377,-0.0365,-0.0365,-0.0343,-0.0332,-0.0309,-0.0301,-0.0307,-0.0267,-0.0255,-0.0224,-0.0216,-0.0208,-0.0202,-0.021,-0.0176,-0.0173,-0.017,-0.0159,-0.0155,-0.0205,-0.0205,-0.0205,-0.0205,0,-0.0393,-0.0373,-0.0358,-0.0335,-0.0322,-0.0301,-0.0291,-0.0279,-0.0277,-0.0269,-0.0243,-0.0229,-0.0208,-0.0201,-0.0198,-0.0169,-0.0173,-0.0177,-0.0188,-0.0165,-0.0155,-0.015,-0.0204,-0.0204,-0.0204,-0.0204,0,0,-0.0361,-0.0336,-0.033,-0.032,-0.03,-0.0285,-0.0264,-0.0243,-0.0232,-0.0217,-0.0199,-0.0172,-0.0176,-0.0164,-0.0161,-0.0147,-0.0122,-0.0153,-0.0152,-0.0148,-0.009,-0.0086,-0.0081,-0.0123,-0.0122,-0.0122,-0.0091,0,-0.0332,-0.0294,-0.0288,-0.0255,-0.0236,-0.0236,-0.0217,-0.0203,-0.0196,-0.0179,-0.0171,-0.0152,-0.0158,-0.0151,-0.0138,-0.0128,-0.0111,-0.013,-0.0107,-0.0106,-0.0111,-0.0076,-0.0072,-0.0044,-0.0087,-0.0086,-0.0086,0,-0.0292,-0.0275,-0.024,-0.0223,-0.0215,-0.0198,-0.0179,-0.0163,-0.0147,-0.0143,-0.013,-0.0128,-0.0106,-0.0117,-0.0088,-0.0101,-0.0091,-0.0085,-0.0084,-0.0081,-0.0094,-0.0072,-0.0035,-0.003,-0.0079,-0.008,-0.008,0,-0.0272,-0.0241,-0.0216,-0.0207,-0.0186,-0.0175,-0.0165,-0.015,-0.0138,-0.0122,-0.0114,-0.0095,-0.0085,-0.0071,-0.0064,-0.0073,-0.0034,-0.0045,-0.003,-0.003,-0.0022,-0.0022,0.0018,-0.0016,-0.0016,-0.0016,-0.0016,0,-0.024,-0.0218,-0.0206,-0.0191,-0.0167,-0.0161,-0.0137,-0.0128,-0.0115,-0.0098,-0.0097,-0.0081,-0.0073,-0.0056,-0.0051,-0.0027,-0.0022,-0.0018,-0.0017,-0.0018,-0.0018,-0.0011,-0.0013,-0.0015,-0.0015,-0.0015,-0.0015,0,-0.0213,-0.0205,-0.0177,-0.016,-0.0155,-0.0138,-0.0123,-0.0108,-0.0101,-0.0079,-0.0074,-0.0062,-0.0042,-0.0034,-0.001,-0.0006,0.0021,0.0021,0.0016,0.0017,0.0031,0.003,0.0078,0.0085,0.0047,0.0047,0.0047,0,-0.0193,-0.0177,-0.0157,-0.0146,-0.0136,-0.0118,-0.0106,-0.0099,-0.0086,-0.0067,-0.0054,-0.0034,-0.0018,0.0014,0.0025,0.0043,0.0043,0.0059,0.0046,0.0044,0.0044,0.0043,0.0044,0.0061,0.0062,0.0062,0.0062,0,-0.0158,-0.0155,-0.0137,-0.0118,-0.0103,-0.0088,-0.0073,-0.0064,-0.0055,-0.0041,-0.002,-0.0007,0.0018,0.0038,0.0057,0.0066,0.0066,0.0066,0.0071,0.007,0.0066,0.0069,0.0023,0.0065,0.0065,0.0065,0.0065,0.0064,-0.0134,-0.0119,-0.0103,-0.0084,-0.0072,-0.0058,-0.0043,-0.0034,-0.0017,0.0004,0.0007,0.0029,0.0045,0.007,0.008,0.0098,0.0093,0.01,0.0102,0.0103,0.0104,0.0064,0.0101,0.0101,0.0101,0.0101,0.0101,0,-0.0099,-0.0089,-0.0071,-0.005,-0.0035,-0.0036,-0.002,-0.0007,0.0013,0.0027,0.0043,0.0067,0.0086,0.0098,0.0117,0.0129,0.0129,0.0133,0.0133,0.0135,0.0107,0.0101,0.0133,0.0133,0.0133,0.0133,0.0133,0.0133,-0.0079,-0.0054,-0.0048,-0.0018,-0.0008,0.0014,0.0023,0.0036,0.0048,0.0074,0.009,0.0098,0.0111,0.0131,0.0149,0.0152,0.0159,0.0164,0.0166,0.014,0.0137,0.0134,0.0128,0.0165,0.0165,0.0193,0.0193,0.0193]}]]